Date String (YYYY-MM-DD hh:mm:ss) UTC,Instrument flags,absolute air pressure of the measurement (hPa),sample flow rate (lpm),inlet stack bypass flow (lpm),air temperature of the measurement (°C),ambient temperature measured by the external sensor (°C),aerosol sample conditioner tube jacket temperature (°C),OPC LED temperature (°C),internal box temperature (°C),relative humidity of the measurement (%),span deviation,mass concentration of particles derived from Lorenz-Mie calculation of OPC scattering (μg/m³),mass concentration of particles derived from Lorenz-Mie calculation of OPC scattering (μg/m³),mass concentration of particles derived from Lorenz-Mie calculation of OPC scattering (μg/m³)
DateTimeUTC,F1_M11,P_M11,Q1_M11,Q2_M11,T1_M11,T2_M11,T3_M11,T4_M11,T5_M11,U1_M11,ZSPAN_M11,X2_M11,X0_M11,X1_M11
2024-03-24 17:00:00,SystemResetWarning,0808.8,5.00,000.00,021.3,020.7,000.0,029.8,023.1,24.3,0001.0,0019.77,0039.90,0017.32
2024-03-24 17:01:00,SystemResetWarning,0808.8,4.99,000.00,021.3,020.7,000.0,029.8,023.1,24.7,0001.2,0019.80,0038.82,0017.33
2024-03-24 17:02:00,SystemResetWarning,0808.8,4.99,000.00,021.3,020.7,000.0,029.8,023.2,24.6,0001.3,0019.83,0040.54,0017.34
2024-03-24 17:03:00,SystemResetWarning,0808.8,5.00,000.00,021.3,020.7,000.0,029.8,023.2,24.7,0001.2,0019.83,0041.18,0017.33
2024-03-24 17:04:00,SystemResetWarning,0808.8,4.99,000.00,021.3,020.7,000.0,029.8,023.2,24.9,0001.0,0019.82,0040.93,0017.33
2024-03-24 17:05:00,SystemResetWarning,0808.8,5.00,000.00,021.3,020.7,000.0,029.8,023.2,24.7,0001.0,0019.82,0039.95,0017.33
2024-03-24 17:06:00,SystemResetWarning,0808.7,5.01,000.00,021.3,020.7,000.0,029.8,023.2,24.5,0001.0,0019.91,0039.57,0017.37
2024-03-24 17:07:00,SystemResetWarning,0808.8,5.01,000.00,021.3,020.7,000.0,029.8,023.2,24.5,0000.7,0020.04,0039.98,0017.39
2024-03-24 17:08:00,SystemResetWarning,0808.8,5.00,000.00,021.3,020.7,000.0,029.8,023.2,24.4,0000.7,0020.16,0040.24,0017.42
2024-03-24 17:09:00,SystemResetWarning,0808.8,4.99,000.00,021.3,020.7,000.0,029.8,023.2,24.5,0000.6,0020.16,0040.43,0017.47
2024-03-24 17:10:00,SystemResetWarning,0808.7,4.99,000.00,021.3,020.8,000.0,029.8,023.2,24.5,0000.6,0020.30,0041.57,0017.55
2024-03-24 17:11:00,SystemResetWarning,0808.7,5.01,000.00,021.4,020.8,000.0,029.8,023.2,24.5,0000.5,0020.39,0041.75,0017.65
2024-03-24 17:12:00,SystemResetWarning,0808.7,5.01,000.00,021.4,020.8,000.0,029.8,023.2,24.6,0000.6,0020.43,0041.79,0017.70
2024-03-24 17:13:00,SystemResetWarning,0808.6,4.99,000.00,021.4,020.8,000.0,029.8,023.2,24.6,0000.5,0020.56,0040.46,0017.77
2024-03-24 17:14:00,SystemResetWarning,0808.7,4.99,000.00,021.4,020.8,000.0,029.9,023.2,24.6,0000.5,0020.62,0040.89,0017.86
2024-03-24 17:15:00,SystemResetWarning,0808.6,5.00,000.00,021.4,020.8,000.0,029.9,023.2,24.5,0000.5,0020.78,0042.76,0017.98
2024-03-24 17:16:00,SystemResetWarning,0808.6,5.01,000.00,021.4,020.8,000.0,029.9,023.2,24.4,0000.5,0020.92,0043.90,0018.12
2024-03-24 17:17:00,SystemResetWarning,0808.7,5.01,000.00,021.4,020.8,000.0,029.9,023.2,24.3,0000.6,0020.99,0044.21,0018.23
2024-03-24 17:18:00,SystemResetWarning,0808.7,5.00,000.00,021.4,020.8,000.0,029.9,023.2,24.3,0000.8,0021.04,0042.89,0018.37
2024-03-24 17:19:00,SystemResetWarning,0808.6,5.00,000.00,021.4,020.8,000.0,029.9,023.2,24.4,0000.7,0021.06,0041.64,0018.52
2024-03-24 17:20:00,SystemResetWarning,0808.7,5.00,000.00,021.4,020.8,000.0,029.9,023.2,24.4,0000.8,0021.19,0042.63,0018.66
2024-03-24 17:21:00,SystemResetWarning,0808.6,5.00,000.00,021.4,020.8,000.0,029.9,023.3,24.4,0000.8,0021.34,0042.89,0018.81
2024-03-24 17:22:00,SystemResetWarning,0808.6,4.99,000.00,021.4,020.8,000.0,029.9,023.3,24.3,0001.1,0021.52,0043.24,0018.93
2024-03-24 17:23:00,SystemResetWarning,0808.6,4.99,000.00,021.4,020.8,000.0,029.9,023.3,24.2,0001.0,0021.62,0043.74,0019.04
2024-03-24 17:24:00,SystemResetWarning,0808.6,4.99,000.00,021.4,020.8,000.0,029.9,023.3,24.1,0001.2,0021.68,0044.67,0019.11
2024-03-24 17:25:00,SystemResetWarning,0808.6,5.01,000.00,021.5,020.8,000.0,029.9,023.3,24.2,0001.3,0021.78,0045.35,0019.17
2024-03-24 17:26:00,SystemResetWarning,0808.6,5.01,000.00,021.5,020.9,000.0,029.9,023.3,24.1,0001.5,0021.83,0043.84,0019.18
2024-03-24 17:27:00,SystemResetWarning,0808.6,5.00,000.00,021.5,020.9,000.0,029.9,023.3,24.0,0001.6,0021.88,0043.01,0019.18
2024-03-24 17:28:00,SystemResetWarning,0808.6,5.00,000.00,021.5,020.9,000.0,029.9,023.3,24.3,0001.6,0021.94,0043.21,0019.21
2024-03-24 17:29:00,SystemResetWarning,0808.6,5.00,000.00,021.5,020.9,000.0,030.0,023.3,24.4,0001.7,0022.00,0042.27,0019.25
2024-03-24 17:30:00,SystemResetWarning,0808.5,5.00,000.00,021.5,020.9,000.0,030.0,023.3,24.5,0001.7,0021.97,0042.73,0019.27
2024-03-24 17:31:00,SystemResetWarning,0808.6,5.00,000.00,021.5,020.9,000.0,030.0,023.3,24.4,0001.9,0022.02,0042.28,0019.31
2024-03-24 17:32:00,SystemResetWarning,0808.6,5.00,000.00,021.5,020.9,000.0,030.0,023.3,24.1,0001.9,0022.00,0041.70,0019.27
2024-03-24 17:33:00,SystemResetWarning,0808.6,5.00,000.00,021.5,020.9,000.0,030.0,023.3,24.0,0001.7,0021.87,0040.48,0019.20
2024-03-24 17:34:00,SystemResetWarning,0808.5,4.99,000.00,021.5,020.9,000.0,030.0,023.4,24.0,0001.7,0021.80,0039.95,0019.17
2024-03-24 17:35:00,SystemResetWarning,0808.5,5.00,000.00,021.5,020.9,000.0,030.0,023.4,24.0,0001.7,0021.73,0039.44,0019.14
2024-03-24 17:36:00,SystemResetWarning,0808.4,5.01,000.00,021.5,020.9,000.0,030.0,023.4,24.1,0001.7,0021.72,0037.74,0019.16
2024-03-24 17:37:00,SystemResetWarning,0808.4,5.00,000.00,021.5,020.9,000.0,030.0,023.4,24.2,0001.8,0021.66,0037.58,0019.16
2024-03-24 17:38:00,SystemResetWarning,0808.4,4.99,000.00,021.5,021.0,000.0,030.0,023.4,24.3,0001.8,0021.63,0039.11,0019.14
2024-03-24 17:39:00,SystemResetWarning,0808.4,5.00,000.00,021.5,021.0,000.0,030.0,023.4,23.9,0001.6,0021.63,0040.53,0019.06
2024-03-24 17:40:00,SystemResetWarning,0808.3,5.01,000.00,021.6,021.0,000.0,030.0,023.4,24.0,0001.4,0021.54,0039.91,0018.97
2024-03-24 17:41:00,SystemResetWarning,0808.3,5.00,000.00,021.6,021.0,000.0,030.0,023.4,24.1,0001.2,0021.48,0040.30,0018.87
2024-03-24 17:42:00,SystemResetWarning,0808.3,5.01,000.00,021.6,021.0,000.0,030.0,023.4,24.0,0001.2,0021.35,0040.42,0018.75
2024-03-24 17:43:00,SystemResetWarning,0808.3,5.00,000.00,021.6,021.0,000.0,030.0,023.4,24.1,0001.3,0021.20,0040.29,0018.68
2024-03-24 17:44:00,SystemResetWarning,0808.3,5.00,000.00,021.6,021.0,000.0,030.0,023.4,24.1,0001.4,0021.20,0040.86,0018.64
2024-03-24 17:45:00,SystemResetWarning,0808.3,5.00,000.00,021.6,021.0,000.0,030.1,023.4,24.0,0001.3,0021.12,0040.50,0018.55
2024-03-24 17:46:00,SystemResetWarning,0808.3,5.00,000.00,021.6,021.0,000.0,030.1,023.4,24.0,0001.2,0021.02,0041.14,0018.42
2024-03-24 17:47:00,SystemResetWarning,0808.3,5.00,000.00,021.6,021.0,000.0,030.1,023.4,23.7,0001.2,0020.80,0041.65,0018.21
2024-03-24 17:48:00,SystemResetWarning,0808.3,4.99,000.00,021.6,021.0,000.0,030.1,023.4,23.1,0001.0,0020.50,0040.67,0017.93
2024-03-24 17:49:00,SystemResetWarning,0808.3,5.00,000.00,021.6,021.0,000.0,030.1,023.5,23.1,0000.8,0020.14,0038.59,0017.65
2024-03-24 17:50:00,SystemResetWarning,0808.2,5.00,000.00,021.6,021.0,000.0,030.1,023.5,23.3,0001.1,0019.78,0037.11,0017.43
2024-03-24 17:51:00,SystemResetWarning,0808.2,5.00,000.00,021.6,021.0,000.0,030.1,023.5,23.4,0001.1,0019.52,0036.93,0017.24
2024-03-24 17:52:00,SystemResetWarning,0808.2,5.01,000.00,021.6,021.1,000.0,030.1,023.5,23.6,0001.2,0019.38,0036.71,0017.10
2024-03-24 17:53:00,SystemResetWarning,0808.2,5.01,000.00,021.6,021.1,000.0,030.1,023.5,23.4,0001.2,0019.26,0036.05,0016.94
2024-03-24 17:54:00,SystemResetWarning,0808.1,4.99,000.00,021.6,021.1,000.0,030.1,023.5,23.2,0001.1,0019.09,0036.04,0016.70
2024-03-24 17:55:00,SystemResetWarning,0808.1,5.00,000.00,021.6,021.1,000.0,030.1,023.5,24.0,0000.9,0018.88,0035.22,0016.53
2024-03-24 17:56:00,SystemResetWarning,0808.2,5.00,000.00,021.7,021.1,000.0,030.1,023.5,23.9,0001.0,0018.75,0035.93,0016.40
2024-03-24 17:57:00,SystemResetWarning,0808.1,5.00,000.00,021.7,021.1,000.0,030.1,023.5,23.5,0001.0,0018.59,0036.18,0016.27
2024-03-24 17:58:00,SystemResetWarning,0808.1,5.00,000.00,021.7,021.1,000.0,030.1,023.5,23.0,0000.9,0018.37,0035.50,0016.05
2024-03-24 17:59:00,SystemResetWarning,0808.1,4.99,000.00,021.7,021.1,000.0,030.1,023.5,22.2,0000.9,0018.08,0035.52,0015.80
